STARLINK-32782, 62821

Orbit data source: Space-Track

STARLINK-32782, 62821 is a payload satellite owned by SpaceX/Seattle (US) in LEO that was launched on Fri, 24 Jan 2025 UTC via an FALCON 9 launch vehicle from the Air Force Western Test Range (AFWTR). Payload-class satellites include a variety of spacecraft equipped with specific instruments for various scientific and technological missions. These include communications satellites like Starlink; space stations such as the ISS; scientific satellites like the Hubble; Earth observation satellites from companies like Planet Labs, Umbra, and HawkEye 360; GPS; miniature CubeSats for education and research; and military/defense satellites.

Loading next visibility...
Identifier
62821, 2025-018R
Orbit
LEO
Last TLE update
10 hours ago
Origin
Manufacturer
SpaceX/Seattle
Mission
Operational Commercial Communications
Bus & Motor
STARLINK V2M, Unknown motor
Mass
730 kg wet, ~700 kg dry
Launch date (UTC)
2025-01-24 (6 months ago)
Launch vehicle
FALCON 9
Launch site
Air Force Western Test Range (AFWTR)
Object type
Payload
Rocket body
Debris
Shape & HBR
Box + 2 Pan, 29 m
Radar Cross Section
33.884 m², Large (>1 m²)

Expand to show TLE details & history

TLE from 10 hours ago
0 STARLINK-32782
1 62821U 25018R   25191.59010866  .00008086  00000-0  28478-3 0  9992
2 62821  53.1603 353.9983 0001121  84.2937 275.8192 15.30204113 26111
Epoch: 2025-07-10T14:09Z
TLE epoch observation values (Epoch: 2025-07-10T14:09:45.388Z)
Latitude
0.00003°
Longitude
-147.195°
Altitude
476.025 km
Speed
7.629 km/s
True Right ascension
23h 35m 59s
True Declination
0° 00' 00"
Sunlit
Object was in full shadow at epoch
Visualization orbit readout
Latitude
14.35636°
Longitude
19.85485°
Altitude
475.167 km
Speed
7.631 km/s
Apparent Right ascension
07h 46m 39s
Apparent Declination
-36° 45' 08"
Sunlit
Object is in daylight
Visualization observer readout
Local Sidereal Time
12:32:33
Azimuth
230.68° WSW
Elevation
-10.877°
Doppler factor
1
Orbital elements
Apogee altitude
476.227 km
Perigee altitude
474.691 km
Semi-major axis
6,853.596 km
Eccentricity
0.00011
Inclination
53.1603°
RAAN
353.9983°
Arg. of periapsis
84.2937°
True anomaly
Unknown
Mean anomaly
275.8192°
Eccentric anomaly
Unknown
Mean motion
3.8253 °/min
Orbital period
94.11 mins
BSTAR
0.00028478
Loading maneuver chart data...
Loading SW <> Apogee altitude chart data...
Loading historical data...
Loading historical data...
Loading historical data...
Loading historical data...
Loading historical data...
Loading historical data...
Loading historical data...

STARLINK-32782 Visibility forecast

Observer location: undefined°, undefined°

Span
Click to sort rows by Start time (UTC) header in descending order
Start Az.
Max El. time (UTC)
Max El. Az.
Max El.
End time (UTC)
End Az.
5 mins2025-07-11 13:53:21.075Z252.081° W2025-07-11 13:55:21.075Z331.804° NNW40.166°2025-07-11 13:58:21.075Z41.645° NE
4 mins2025-07-11 18:50:21.075Z348.315° N2025-07-11 18:52:21.075Z31.531° NE19.47°2025-07-11 18:54:21.075Z69.2° E
5 mins2025-07-11 20:28:21.075Z300.499° NW2025-07-11 20:30:21.075Z212.804° SW43.054°2025-07-11 20:33:21.075Z140.365° SSE
|